User: anonymous   Login
Location: Unspecified
(0.0000°N, 0.0000°E)
Time: 02:58:28
(UTC+00:00)
Language:

ESSA 7 - Orbit

View from above orbital plane
View from above orbital plane
View from above satellite
View from above satellite

Ground track
Ground track

The orbit data is extracted from the following two-line orbital elements,

1  3345U 68069A   18171.59805769 -.00000048 +00000-0 -31914-4 0  9997
2  3345 101.4492 207.1054 0027155 111.5485 040.3003 12.52972608279440
Epoch (UTC): 20 June 2018 14:21:12
Eccentricity: 0.0027155
inclination: 101.4492°
perigee height: 1431 km
apogee height: 1473 km
right ascension of ascending node: 207.1054°
argument of perigee: 111.5485°
revolutions per day: 12.52972608
mean anomaly at epoch: 40.3003°
orbit number at epoch: 27944

The dashed part of the orbit path shows where the satellite is in the earth's shadow,  

DLR